Theta_e
312 314 315 317 318 318 315 317 316 314 319 321 322 321 322 321 321 321 324 326 326 327 326 326 325 326 325 322 321 321 327 330 329 329 329 327 327 326 326 329 331 330 331 331 336
311 312 314 316 317 317 318 316 317 315 314 319 321 320 320 320 319 321 320 324 325 325 324 328 328 327 323 323 322 320 325 330 324 324 327 325 326 327 328 329 332 334 334 335 336
310 310 311 314 315 316 315 318 317 315 314 315 319 320 320 320 319 319 321 321 320 321 324 326 328 327 326 322 324 322 324 325 323 323 323 325 324 323 325 328 330 333 334 334 335
309 309 308 311 314 315 315 315 316 317 315 313 315 318 319 321 315 322 323 323 321 323 323 324 327 327 326 325 322 325 322 323 323 322 323 324 323 323 323 323 322 327 331 333 333
306 308 307 307 312 314 314 315 314 318 315 314 314 317 319 320 320 323 322 325 322 320 323 325 328 327 327 324 323 324 324 323 322 322 322 323 323 323 323 320 325 326 329 331 332
304 306 307 306 308 312 313 314 314 316 317 315 313 316 318 318 315 319 321 320 326 323 323 325 326 324 326 325 323 322 324 324 322 323 324 324 324 324 322 318 320 322 323 323 325
304 304 305 306 305 309 313 312 313 315 317 315 314 315 317 313 315 323 321 320 325 326 324 323 325 326 325 325 322 323 325 323 323 322 324 322 325 324 320 320 319 318 316 316 316
304 303 303 306 306 308 311 312 312 314 315 317 314 315 312 312 317 318 318 319 322 326 327 327 325 325 327 324 323 324 322 325 322 323 323 322 323 320 319 320 320 318 316 316 317
304 304 302 303 306 307 310 312 311 314 314 316 315 314 312 312 311 315 318 319 322 325 326 326 325 326 324 326 325 323 325 324 323 320 323 322 323 320 318 317 317 316 316 315 315
304 304 302 302 304 305 309 311 311 313 315 315 313 312 311 313 312 311 313 318 322 324 325 326 325 325 322 324 328 326 326 323 323 320 319 322 322 319 319 317 317 316 314 314 315
305 304 302 301 301 304 308 312 312 314 315 315 314 314 312 313 313 314 316 320 320 324 325 326 327 326 326 325 324 322 324 324 320 318 320 319 319 321 320 317 316 315 314 314 315
306 304 303 301 303 304 307 312 311 313 316 314 313 313 313 312 314 314 318 320 322 322 324 326 325 321 322 324 325 324 323 323 320 318 320 319 318 318 317 317 316 316 314 314 314
306 304 303 301 301 305 305 309 307 312 314 314 313 314 313 313 314 314 318 318 321 321 323 321 319 320 323 324 326 324 325 322 322 319 317 318 318 318 317 316 316 315 315 315 314
306 305 303 300 303 305 304 304 306 311 314 314 315 314 313 313 314 313 317 316 319 320 319 321 319 320 321 322 322 325 319 321 321 321 322 316 318 315 314 313 314 315 315 315 314
306 305 303 301 301 304 304 304 307 309 314 312 314 312 311 314 313 314 316 316 316 318 317 316 318 319 320 320 315 319 316 317 318 319 319 319 320 315 313 314 312 312 311 312 312
306 305 303 302 303 301 303 303 305 312 311 314 314 315 315 314 314 314 317 315 314 315 315 313 313 315 315 317 316 317 320 320 320 321 325 320 319 316 315 315 313 310 309 310 309
306 304 303 302 301 304 304 304 308 311 308 313 315 315 314 315 315 315 318 319 317 319 317 315 316 315 313 317 317 319 321 320 325 322 320 314 320 318 314 312 311 311 309 308 306
305 304 303 302 301 304 304 305 310 306 306 312 313 314 315 314 315 316 317 318 315 314 314 318 319 315 315 315 318 321 320 319 320 320 315 312 318 314 311 311 311 310 309 307 305
305 303 303 302 302 303 302 306 304 300 307 311 314 315 315 314 315 314 315 316 316 313 314 315 314 312 315 315 315 317 321 315 316 304 312 313 311 309 309 310 310 308 309 308 306
303 302 302 301 302 303 302 306 304 306 307 311 311 313 315 315 314 316 316 315 315 314 312 314 313 313 314 314 315 315 315 321 316 318 310 311 311 312 312 312 311 311 309 308 305
302 301 302 302 302 298 297 293 298 302 305 310 312 315 313 315 313 316 315 312 314 314 313 314 314 315 315 316 317 318 317 317 317 314 314 312 310 305 309 308 310 309 309 308 306
298 303 302 302 295 293 296 290 299 302 304 305 304 305 308 310 315 312 314 315 311 313 315 313 316 317 317 315 314 315 317 317 318 310 312 315 314 308 307 309 308 309 308 306 305
297 300 300 299 292 295 283 295 297 300 302 304 304 305 303 305 307 313 311 310 311 312 314 314 315 315 314 316 313 316 315 315 316 313 317 318 316 311 310 310 308 307 307 306 303
297 301 298 297 290 290 287 290 293 298 301 302 304 305 304 304 304 305 306 310 309 312 313 313 313 314 315 312 315 317 316 316 317 319 318 317 315 313 310 308 308 310 308 306 303
292 295 296 299 296 293 296 294 291 295 299 299 300 300 302 302 305 305 305 308 311 312 313 314 316 314 313 310 312 313 315 316 318 317 317 315 314 313 312 311 310 309 308 306 304
296 296 294 287 296 298 297 291 298 296 299 299 299 300 300 300 301 305 308 308 312 311 314 313 314 312 313 311 310 312 311 313 314 315 314 314 314 311 311 310 307 308 307 306 306
295 296 293 294 290 293 297 294 297 298 298 300 300 300 302 301 301 303 305 306 307 310 313 314 315 313 316 310 312 314 313 311 311 311 312 313 312 311 310 310 309 308 307 307 307
Wind_Speed
6 6 8 9 11 13 12 11 11 11 10 8 7 5 5 7 7 6 4 4 4 10 14 16 14 21 10 5 5 2 4 1 1 5 5 4 5 1 3 6 3 4 4 5 23
7 6 6 9 8 11 12 12 10 10 11 8 6 5 4 4 5 8 8 8 8 7 8 11 7 16 5 6 5 4 3 0 2 2 3 4 5 6 5 4 4 4 6 17 20
7 7 5 6 9 9 10 11 12 10 10 10 7 5 5 2 2 4 5 8 12 11 5 7 8 3 3 4 3 1 3 1 3 3 2 2 3 4 8 2 6 9 9 10 12
10 8 6 4 7 9 9 10 10 12 10 10 9 7 5 5 6 2 3 3 4 6 6 2 3 2 2 2 4 2 1 2 2 2 2 2 1 4 3 6 7 11 12 12 10
12 11 11 5 5 8 9 9 10 12 11 11 11 9 7 2 5 6 5 6 3 4 6 3 1 0 3 2 4 3 2 2 2 2 2 2 3 1 3 4 6 11 11 11 11
13 11 11 10 6 7 9 10 10 10 13 13 12 11 3 3 3 8 5 1 4 3 6 6 2 1 4 3 2 0 2 1 2 3 1 2 0 3 5 5 5 8 11 10 10
13 13 11 11 9 7 8 10 12 10 10 12 11 12 1 10 5 9 6 2 1 2 3 6 2 2 4 3 3 2 1 4 0 3 3 4 3 8 8 3 8 9 9 9 12
15 13 13 11 9 6 9 10 8 12 10 9 11 9 5 8 9 7 4 4 2 2 2 2 5 3 2 4 4 4 5 2 4 6 4 7 7 11 7 5 10 9 9 9 10
16 15 14 13 9 6 8 9 9 9 13 10 10 6 5 1 8 16 3 3 4 2 2 3 4 3 2 3 3 5 3 4 6 7 4 7 6 9 8 8 10 9 9 9 9
19 17 15 15 11 9 5 9 8 8 10 10 7 1 3 4 7 17 15 5 2 4 3 2 2 3 2 4 6 5 5 4 6 3 5 7 8 8 6 8 9 7 8 9 9
22 19 17 16 15 11 7 9 4 2 8 4 8 4 2 0 10 9 17 7 1 2 5 4 6 14 14 16 8 6 4 7 3 3 2 7 11 14 12 5 9 9 8 8 9
24 22 19 14 13 13 11 4 3 2 5 4 9 2 1 3 3 4 17 6 6 5 5 4 15 6 6 5 7 5 5 4 5 6 5 7 8 9 8 7 8 9 9 11 7
26 24 19 15 14 15 12 3 5 1 2 4 5 4 4 5 3 8 13 5 4 7 9 6 3 13 8 6 8 5 11 4 5 4 4 4 11 7 7 7 11 10 13 13 15
27 26 21 15 9 14 10 19 5 4 1 7 10 7 3 5 3 10 16 3 4 10 5 7 7 6 5 9 9 11 6 5 4 0 5 2 12 8 5 8 6 10 13 16 17
26 29 25 23 9 9 6 16 4 5 4 6 9 8 10 8 7 5 19 3 5 6 6 7 6 12 8 7 6 4 7 7 5 4 4 3 5 5 4 6 9 16 12 10 10
28 33 27 22 9 9 12 10 1 5 7 6 6 11 11 11 4 3 3 1 3 3 3 7 1 6 10 6 11 6 4 3 2 3 8 10 8 6 9 14 13 7 9 9 6
33 34 30 23 7 18 21 12 4 8 3 6 6 10 18 10 14 8 11 12 7 6 9 4 13 3 3 7 4 7 10 1 5 4 7 3 10 17 3 7 8 9 11 7 8
33 33 27 20 15 21 12 4 5 2 5 1 5 11 15 9 18 11 12 14 14 3 4 9 4 13 9 7 5 14 9 5 7 5 4 4 9 6 9 10 8 12 5 6 6
34 24 24 18 18 22 3 6 4 4 5 8 5 9 12 12 6 14 15 17 15 13 8 6 6 1 3 4 12 5 12 6 3 3 2 5 7 8 9 10 6 6 6 10 10
17 16 14 19 19 16 1 3 2 1 4 5 7 4 9 15 12 15 15 13 17 19 2 5 1 4 13 3 3 8 7 5 3 3 4 6 6 9 3 8 5 5 9 8 5
18 4 13 21 18 3 3 5 2 2 3 5 3 3 3 8 13 9 5 2 20 17 16 2 1 1 6 11 15 5 5 5 3 6 5 2 6 7 13 9 7 8 7 6 8
5 4 23 27 3 2 2 6 4 2 2 3 3 3 2 2 9 10 10 12 9 15 18 8 3 5 11 2 8 15 14 16 6 6 5 8 16 3 5 6 6 7 8 8 8
3 3 14 18 4 2 4 0 3 1 2 4 4 2 2 2 3 5 10 5 6 15 15 14 5 2 2 4 3 8 13 11 13 2 13 9 16 12 17 14 7 6 8 7 6
3 4 2 2 2 6 3 2 2 3 4 2 3 5 3 4 4 3 7 8 10 16 13 16 6 9 16 4 7 8 11 17 15 8 14 14 27 15 7 8 6 4 6 5 7
2 1 0 6 6 4 4 6 4 5 4 7 3 9 6 6 7 7 4 13 9 10 16 8 10 17 15 1 4 8 13 15 18 23 15 22 19 25 18 14 11 13 12 5 9
3 3 2 1 6 8 7 4 8 2 6 4 5 4 7 9 10 6 9 3 5 5 9 7 5 4 13 9 8 5 3 14 20 20 14 22 24 27 20 12 9 12 7 9 14
3 2 3 4 4 5 7 6 7 6 5 6 6 4 10 18 12 10 5 3 7 12 13 10 8 5 17 7 6 9 21 17 11 16 15 16 26 23 24 21 20 16 11 17 18
Wind_Direction
282 285 253 239 222 219 213 212 215 208 209 202 205 181 261 294 310 301 260 218 281 312 329 329 345 357 350 354 7 60 65 50 15 167 174 177 120 132 87 92 48 5 133 178 157
267 273 258 242 227 210 214 213 210 212 208 206 200 175 202 289 308 272 249 239 257 290 345 5 347 347 352 353 1 69 88 123 296 143 170 132 128 141 107 102 38 51 53 135 155
253 270 266 242 227 213 203 207 210 209 208 202 196 182 165 173 329 250 258 260 250 251 259 335 319 337 354 348 346 64 149 238 337 53 69 100 104 139 123 185 191 180 169 161 165
249 258 269 266 228 221 211 203 204 204 202 199 194 187 165 154 219 177 59 314 255 230 217 354 351 337 317 297 339 75 143 346 195 30 76 81 308 86 142 208 181 175 163 167 175
241 237 255 270 244 224 210 212 203 200 196 192 189 186 158 134 253 182 91 48 76 178 159 143 162 182 208 313 348 183 237 44 55 103 86 45 46 107 163 219 155 151 167 181 190
236 238 244 253 257 229 208 211 204 193 194 188 178 180 154 188 244 226 212 74 58 95 147 170 145 296 275 249 184 60 219 116 198 219 124 154 76 11 240 170 176 166 190 194 194
237 233 239 243 247 250 210 201 208 194 193 187 180 173 214 212 176 177 203 157 148 113 139 203 192 97 352 297 318 188 215 348 114 197 215 125 300 233 229 179 206 218 221 218 216
237 230 234 230 230 244 221 201 197 205 184 186 175 164 226 227 187 141 173 188 132 128 111 83 179 169 208 312 4 154 73 133 282 167 238 129 257 249 247 220 250 246 244 227 232
231 228 230 232 222 228 225 198 189 194 193 175 153 155 245 193 206 202 146 145 158 119 126 110 134 167 97 96 13 358 176 179 290 211 194 189 239 257 229 195 241 244 247 248 256
225 225 225 228 227 215 215 187 168 173 160 148 126 56 265 210 182 212 205 202 175 147 94 113 91 144 75 132 191 198 215 216 203 253 193 234 247 267 266 203 234 256 256 250 238
219 219 221 225 224 211 192 132 126 192 206 188 159 194 117 200 144 167 178 157 177 182 154 185 196 204 193 199 192 181 194 215 223 247 223 239 246 250 245 246 251 248 257 259 242
216 211 215 218 209 207 208 181 45 8 186 214 162 93 56 210 99 147 166 160 174 188 153 155 224 199 195 197 198 190 193 233 279 264 199 275 260 246 251 234 230 240 249 244 251
212 203 207 208 208 201 205 164 35 20 148 180 179 178 190 163 188 180 165 178 168 178 200 200 191 187 195 188 200 218 224 188 232 325 264 309 278 244 242 226 230 233 239 243 231
207 196 196 188 185 203 211 233 340 11 202 190 191 226 176 128 260 182 183 152 188 192 153 244 241 185 174 208 177 224 189 183 211 0 251 100 280 251 251 256 235 249 245 244 243
200 192 191 179 159 178 173 212 238 111 220 161 161 178 156 169 137 217 177 78 183 167 165 223 188 209 218 217 170 203 162 186 202 227 282 219 284 277 233 270 254 251 261 240 230
200 185 182 174 151 188 172 173 202 165 234 160 137 172 158 187 176 100 145 26 168 190 267 221 252 195 219 189 199 166 116 115 71 186 248 224 208 205 223 233 252 250 259 251 179
180 180 176 172 170 152 166 129 211 191 204 176 173 173 181 173 183 167 170 186 175 179 212 196 238 278 172 163 161 175 153 163 199 216 241 263 202 250 274 274 236 253 258 236 163
178 174 173 172 168 169 147 164 208 197 188 214 150 160 191 161 197 177 163 199 213 205 142 196 231 206 192 206 175 198 175 162 196 207 247 196 227 257 230 250 248 238 250 144 175
165 150 165 173 170 171 100 203 195 186 170 157 143 182 186 195 166 195 211 214 203 195 181 181 248 248 217 167 180 190 210 175 92 23 35 234 289 290 248 263 259 256 172 192 193
129 129 152 169 168 139 111 255 200 77 331 166 180 186 184 187 176 193 178 221 213 199 190 218 262 201 196 146 185 179 159 185 169 227 258 255 264 238 317 241 252 218 219 209 189
113 103 157 164 150 69 174 226 288 244 79 350 139 119 257 189 189 191 229 225 195 188 202 286 140 355 130 203 191 163 185 206 169 191 201 267 256 225 232 229 243 245 242 225 213
93 110 158 149 84 65 159 180 203 97 117 101 101 85 39 308 212 193 219 211 203 177 199 180 169 209 204 290 226 222 212 196 197 246 244 252 261 318 193 130 157 229 238 225 218
81 76 154 169 145 194 305 322 146 190 178 162 152 156 132 102 22 281 248 221 204 186 186 179 207 151 348 276 342 212 218 221 226 63 224 230 258 221 239 275 335 294 284 251 193
108 127 69 72 119 136 130 236 197 227 178 141 114 127 148 202 151 282 328 309 204 208 207 173 176 217 229 200 146 206 201 216 214 222 233 227 259 257 261 271 286 311 280 232 212
49 134 125 174 198 155 177 173 169 184 211 181 194 201 170 207 174 219 266 259 264 206 205 188 230 224 246 133 209 211 204 215 219 230 228 250 243 263 258 257 249 244 254 215 228
99 129 78 123 139 177 206 230 178 222 156 227 213 154 229 247 222 216 183 107 275 227 202 214 245 194 256 226 208 244 230 224 230 240 247 248 259 266 274 261 245 246 240 222 229
52 59 105 173 118 139 214 195 198 169 238 191 181 187 236 241 241 271 228 189 203 264 209 199 214 190 250 167 175 232 218 227 234 239 238 244 249 263 268 266 257 255 230 238 245